Location: Unspecified
(0.0000°N, 0.0000°E)
Time: 19:19:45
(UTC+00:00)

Transit 2A - Pass Details

Date: 18 May 2025
Orbit: 599 x 947 km, 66.7° (Epoch: 12 June)

Event Time Altitude Azimuth Distance (km) Brightness Sun altitude
Rises 04:27:05 0° 162° (SSE) 3,402 9.3 -21.0°
Reaches altitude 10° 04:32:17 10° 122° (ESE) 2,353 9.0 -19.8°
Maximum altitude 04:33:05 10° 114° (ESE) 2,313 9.1 -19.6°
Drops below altitude 10° 04:33:52 10° 105° (ESE) 2,316 9.3 -19.4°
Sets 04:38:40 0° 64° (ENE) 3,123 10.9 -18.3°
